Location: *
(51.1248°S, 108.4023°W)
Time: 04:13:30
(UTC+00:00)

CZ-2C R/B - Pass Details

Date: 15 June 2021
Orbit: 703 x 909 km, 98.0° (Epoch: 31 July)

Event Time Altitude Azimuth Distance (km) Brightness Sun altitude
Rises 13:17:08 0° 0° (N) 3,115 6.4 -17.5°
Reaches altitude 10° 13:19:28 10° 354° (N) 2,193 5.5 -17.2°
Maximum altitude 13:24:06 49° 279° (W) 928 3.0 -16.5°
Enters shadow 13:27:49 16° 208° (SSW) 1,855 4.6 -15.9°
